• en Belgique
  • Liste des pays
  • À 7 jours
  • Température de l'eau
  • Carte satellitaire
  • Carte météo
  • Widgets météo
  • user-avatar
    Se connecter

    Météo par heure à Yulara

    Ce jour, 25 Avril, Mercredi

    Heure Température Précipitation Vent Pression Humidité
    00:00 +26°C° 0 mm 2 m/s 718 mmHg 26%
    01:00 +25°C° 0 mm 2 m/s 718 mmHg 27%
    02:00 +25°C° 0 mm 2 m/s 717 mmHg 28%
    03:00 +25°C° 0 mm 2 m/s 717 mmHg 28%
    04:00 +24°C° 0 mm 2 m/s 717 mmHg 29%
    05:00 +23°C° 0 mm 2 m/s 717 mmHg 30%
    06:00 +23°C° 0 mm 2 m/s 718 mmHg 30%
    07:00 +25°C° 0 mm 2 m/s 718 mmHg 27%
    08:00 +27°C° 0 mm 1 m/s 718 mmHg 23%
    09:00 +29°C° 0 mm 1 m/s 719 mmHg 21%
    10:00 +30°C° 0 mm 2 m/s 719 mmHg 19%
    11:00 +32°C° 0 mm 2 m/s 719 mmHg 18%
    12:00 +34°C° 0 mm 2 m/s 718 mmHg 16%
    13:00 +34°C° 0 mm 2 m/s 718 mmHg 15%
    14:00 +35°C° 0 mm 2 m/s 717 mmHg 15%
    15:00 +35°C° 0 mm 2 m/s 717 mmHg 15%
    16:00 +34°C° 0 mm 2 m/s 717 mmHg 16%
    17:00 +33°C° 0 mm 3 m/s 717 mmHg 17%
    18:00 +31°C° 0 mm 3 m/s 717 mmHg 18%
    19:00 +32°C° 0 mm 4 m/s 718 mmHg 20%
    20:00 +30°C° 0 mm 5 m/s 718 mmHg 22%
    21:00 +29°C° 0 mm 6 m/s 718 mmHg 24%
    22:00 +28°C° 0 mm 6 m/s 719 mmHg 26%
    23:00 +28°C° 0 mm 6 m/s 719 mmHg 29%

    Demain, 26 Avril, Jeudi

    Heure Température Précipitation Vent Pression Humidité
    00:00 +27°C° 0 mm 7 m/s 719 mmHg 32%
    01:00 +26°C° 0 mm 7 m/s 719 mmHg 36%
    02:00 +24°C° 0 mm 7 m/s 719 mmHg 40%
    03:00 +24°C° 0 mm 7 m/s 719 mmHg 44%
    04:00 +23°C° 0 mm 7 m/s 719 mmHg 46%
    05:00 +23°C° 0 mm 7 m/s 719 mmHg 49%
    06:00 +22°C° 0 mm 8 m/s 720 mmHg 51%
    07:00 +22°C° 0 mm 8 m/s 720 mmHg 49%
    08:00 +23°C° 0 mm 8 m/s 720 mmHg 47%
    09:00 +23°C° 0 mm 8 m/s 720 mmHg 45%
    10:00 +26°C° 0 mm 8 m/s 720 mmHg 41%
    11:00 +27°C° 0 mm 7 m/s 720 mmHg 36%
    12:00 +28°C° 0 mm 6 m/s 720 mmHg 32%
    13:00 +28°C° 0 mm 6 m/s 720 mmHg 31%
    14:00 +28°C° 0 mm 6 m/s 720 mmHg 31%
    15:00 +29°C° 0 mm 5 m/s 719 mmHg 30%
    16:00 +27°C° 0 mm 6 m/s 720 mmHg 35%
    17:00 +26°C° 0 mm 7 m/s 720 mmHg 40%
    18:00 +23°C° 0 mm 8 m/s 720 mmHg 46%
    19:00 +22°C° 0,2 mm 7 m/s 720 mmHg 50%
    20:00 +22°C° 0,2 mm 7 m/s 721 mmHg 54%
    21:00 +21°C° 0,2 mm 6 m/s 721 mmHg 59%
    22:00 +20°C° 0,3 mm 6 m/s 721 mmHg 61%
    23:00 +20°C° 0,3 mm 6 m/s 721 mmHg 62%

    Après-demain, 27 Avril, Vendredi

    Heure Température Précipitation Vent Pression Humidité
    00:00 +20°C° 0,3 mm 6 m/s 722 mmHg 64%
    01:00 +20°C° 0,1 mm 6 m/s 721 mmHg 65%
    02:00 +19°C° 0,1 mm 6 m/s 721 mmHg 66%
    03:00 +18°C° 0,1 mm 7 m/s 721 mmHg 66%
    04:00 +19°C° 0 mm 6 m/s 721 mmHg 68%
    05:00 +17°C° 0 mm 5 m/s 721 mmHg 69%
    06:00 +18°C° 0 mm 4 m/s 720 mmHg 71%
    07:00 +20°C° 0 mm 4 m/s 721 mmHg 63%
    08:00 +21°C° 0 mm 4 m/s 721 mmHg 56%
    09:00 +23°C° 0 mm 4 m/s 722 mmHg 48%
    10:00 +25°C° 0 mm 5 m/s 722 mmHg 41%
    11:00 +27°C° 0 mm 6 m/s 722 mmHg 34%
    12:00 +29°C° 0 mm 6 m/s 722 mmHg 28%
    13:00 +29°C° 0 mm 6 m/s 721 mmHg 25%
    14:00 +30°C° 0 mm 5 m/s 720 mmHg 23%
    15:00 +30°C° 0 mm 4 m/s 719 mmHg 21%
    16:00 +29°C° 0 mm 3 m/s 720 mmHg 24%
    17:00 +27°C° 0 mm 2 m/s 720 mmHg 26%
    18:00 +26°C° 0 mm 1 m/s 720 mmHg 28%
    19:00 +26°C° 0 mm 2 m/s 720 mmHg 28%
    20:00 +26°C° 0 mm 3 m/s 720 mmHg 27%
    21:00 +25°C° 0 mm 4 m/s 721 mmHg 27%
    22:00 +25°C° 0 mm 4 m/s 721 mmHg 28%
    23:00 +25°C° 0 mm 4 m/s 721 mmHg 28%

    28 Avril, Samedi

    Heure Température Précipitation Vent Pression Humidité
    00:00 +25°C° 0 mm 5 m/s 721 mmHg 29%
    01:00 +23°C° 0 mm 5 m/s 721 mmHg 30%
    02:00 +23°C° 0 mm 4 m/s 720 mmHg 31%
    03:00 +22°C° 0 mm 4 m/s 720 mmHg 33%
    04:00 +22°C° 0 mm 4 m/s 720 mmHg 34%
    05:00 +21°C° 0 mm 4 m/s 720 mmHg 35%
    06:00 +20°C° 0 mm 4 m/s 720 mmHg 37%
    07:00 +22°C° 0 mm 4 m/s 721 mmHg 33%
    08:00 +23°C° 0 mm 5 m/s 721 mmHg 30%
    09:00 +25°C° 0 mm 5 m/s 722 mmHg 26%
    10:00 +27°C° 0 mm 4 m/s 722 mmHg 24%
    11:00 +28°C° 0 mm 4 m/s 721 mmHg 21%
    12:00 +30°C° 0 mm 3 m/s 721 mmHg 18%
    13:00 +30°C° 0 mm 4 m/s 721 mmHg 18%
    14:00 +30°C° 0 mm 4 m/s 720 mmHg 19%
    15:00 +32°C° 0 mm 4 m/s 719 mmHg 19%
    16:00 +29°C° 0 mm 5 m/s 719 mmHg 22%
    17:00 +28°C° 0 mm 6 m/s 719 mmHg 25%
    18:00 +26°C° 0 mm 7 m/s 719 mmHg 28%
    19:00 +26°C° 0 mm 7 m/s 720 mmHg 30%
    20:00 +24°C° 0 mm 7 m/s 720 mmHg 32%
    21:00 +24°C° 0 mm 7 m/s 721 mmHg 34%
    22:00 +23°C° 0 mm 7 m/s 721 mmHg 36%
    23:00 +23°C° 0 mm 7 m/s 721 mmHg 37%

    29 Avril, Dimanche

    Heure Température Précipitation Vent Pression Humidité
    00:00 +22°C° 0 mm 7 m/s 721 mmHg 39%
    01:00 +22°C° 0 mm 7 m/s 721 mmHg 38%
    02:00 +22°C° 0 mm 7 m/s 721 mmHg 38%
    03:00 +21°C° 0 mm 8 m/s 720 mmHg 37%
    04:00 +21°C° 0 mm 7 m/s 721 mmHg 38%
    05:00 +20°C° 0 mm 7 m/s 721 mmHg 40%
    06:00 +20°C° 0 mm 6 m/s 722 mmHg 41%
    07:00 +21°C° 0 mm 7 m/s 722 mmHg 40%
    08:00 +21°C° 0 mm 7 m/s 723 mmHg 38%
    09:00 +22°C° 0 mm 7 m/s 723 mmHg 37%
    10:00 +24°C° 0 mm 7 m/s 723 mmHg 34%
    11:00 +26°C° 0 mm 7 m/s 723 mmHg 31%
    12:00 +27°C° 0 mm 6 m/s 722 mmHg 27%
    13:00 +28°C° 0 mm 6 m/s 722 mmHg 27%
    14:00 +28°C° 0 mm 6 m/s 721 mmHg 26%
    15:00 +29°C° 0 mm 5 m/s 721 mmHg 25%
    16:00 +28°C° 0 mm 6 m/s 721 mmHg 27%
    17:00 +27°C° 0 mm 6 m/s 721 mmHg 28%
    18:00 +26°C° 0 mm 6 m/s 721 mmHg 30%
    19:00 +25°C° 0 mm 5 m/s 722 mmHg 32%
    20:00 +23°C° 0 mm 5 m/s 722 mmHg 34%
    21:00 +22°C° 0 mm 5 m/s 722 mmHg 37%
    22:00 +21°C° 0 mm 5 m/s 722 mmHg 39%
    23:00 +21°C° 0 mm 5 m/s 722 mmHg 41%

    30 Avril, Lundi

    Heure Température Précipitation Vent Pression Humidité
    00:00 +20°C° 0 mm 5 m/s 722 mmHg 44%
    01:00 +19°C° 0 mm 5 m/s 722 mmHg 45%
    02:00 +19°C° 0 mm 4 m/s 721 mmHg 47%
    03:00 +18°C° 0 mm 4 m/s 721 mmHg 49%
    04:00 +18°C° 0 mm 4 m/s 721 mmHg 49%
    05:00 +17°C° 0 mm 4 m/s 721 mmHg 50%
    06:00 +17°C° 0 mm 4 m/s 721 mmHg 51%
    07:00 +18°C° 0 mm 4 m/s 722 mmHg 46%
    08:00 +20°C° 0 mm 4 m/s 722 mmHg 41%
    09:00 +21°C° 0 mm 4 m/s 722 mmHg 36%
    10:00 +22°C° 0 mm 4 m/s 722 mmHg 32%
    11:00 +24°C° 0 mm 3 m/s 721 mmHg 28%
    12:00 +26°C° 0 mm 3 m/s 721 mmHg 24%
    13:00 +26°C° 0 mm 3 m/s 720 mmHg 22%
    14:00 +27°C° 0 mm 3 m/s 720 mmHg 21%
    15:00 +27°C° 0 mm 3 m/s 719 mmHg 19%
    16:00 +26°C° 0 mm 3 m/s 719 mmHg 20%
    17:00 +25°C° 0 mm 3 m/s 719 mmHg 22%
    18:00 +24°C° 0 mm 3 m/s 720 mmHg 23%
    19:00 +22°C° 0 mm 3 m/s 720 mmHg 24%
    20:00 +21°C° 0 mm 3 m/s 720 mmHg 26%
    21:00 +21°C° 0 mm 4 m/s 721 mmHg 27%
    22:00 +20°C° 0 mm 4 m/s 721 mmHg 29%
    23:00 +19°C° 0 mm 4 m/s 720 mmHg 30%
    Voir plus